Location: Powder Track
(41.8531°N, 72.3584°W)
Time: 18:28:36
(UTC+00:00)

Transit 4A - Pass Details

Date: 07 August 2021
Orbit: 871 x 974 km, 66.8° (Epoch: 21 September)

Event Time Altitude Azimuth Distance (km) Brightness Sun altitude
Rises 11:50:04 0° 331° (NNW) 3,479 10.7 20.9°
Reaches altitude 10° 11:52:34 10° 335° (NNW) 2,546 10.0 21.3°
Maximum altitude 11:58:26 65° 57° (ENE) 978 8.8 22.4°
Drops below altitude 10° 12:04:24 10° 140° (SE) 2,592 10.9 23.5°
Sets 12:06:57 0° 143° (SE) 3,546 11.4 24.0°
